GEFSMA_con_probscp_204.txt.gz
Probability
0 0 1 2 2 2 2 1 0 0 0 0 0 0 0 0 0 0 1 2 3 3 2 1 1 1 2 2 1 1 1 1 0 0 0 0 0 0 0 0 0 0 0
0 1 2 3 3 3 3 2 1 0 0 0 0 0 0 0 0 0 0 1 2 3 3 2 2 2 2 3 3 3 2 2 1 0 0 0 0 0 0 0 0 0 0
1 1 3 4 4 4 5 4 2 0 0 0 0 0 0 1 1 1 0 0 1 2 3 3 3 3 3 4 5 5 4 4 2 2 2 1 1 0 0 0 0 0 0
2 2 3 5 6 6 6 5 3 1 1 0 0 0 0 1 2 1 1 0 0 1 2 3 4 4 4 5 6 6 7 6 5 5 4 3 2 1 0 0 0 0 0
4 4 5 6 6 6 6 5 4 4 2 1 1 0 1 1 2 2 2 1 1 1 1 3 4 4 5 6 7 7 8 9 9 8 7 6 4 3 1 0 0 0 0
6 5 6 6 6 5 5 5 5 5 4 2 1 1 1 2 3 4 5 3 2 2 2 3 5 6 6 7 8 9 9 10 10 10 9 7 6 5 3 1 0 0 0
7 7 6 6 6 6 5 5 5 5 4 2 1 0 1 1 2 4 6 5 3 4 5 6 8 10 9 8 8 10 10 9 9 8 8 7 6 5 4 2 0 0 0
9 10 9 7 7 7 6 6 7 5 3 2 1 0 0 0 1 2 3 4 5 6 7 8 11 14 13 10 8 8 8 8 7 6 6 6 6 6 4 2 1 0 0
14 14 13 9 7 7 7 8 9 8 4 1 1 1 1 1 0 0 1 2 6 10 10 9 11 14 14 12 10 7 6 6 5 4 4 4 5 5 4 3 1 0 0
18 17 14 11 9 9 9 8 8 9 6 2 0 1 1 1 0 0 0 1 4 9 11 9 10 14 15 14 13 10 7 5 4 3 2 3 4 4 4 3 2 1 1
17 16 15 15 13 12 11 10 8 8 6 4 2 1 1 1 0 0 0 0 1 5 8 8 10 14 14 14 13 11 9 6 4 3 2 4 4 3 3 3 2 2 2
15 14 16 18 18 15 13 13 10 8 7 6 4 3 1 0 0 1 0 0 0 2 4 6 10 12 13 12 10 8 7 7 5 3 3 4 4 3 3 3 2 1 1
15 15 19 22 21 18 16 16 14 12 11 9 7 6 3 1 1 2 1 0 0 0 2 5 8 10 10 10 7 4 3 3 3 1 1 2 2 2 2 1 1 0 0
15 18 23 24 21 18 17 18 16 14 15 13 10 9 6 3 4 4 2 1 1 0 0 4 8 9 7 8 6 2 0 1 1 0 0 0 1 1 1 0 0 0 0
17 20 23 23 19 16 16 17 16 15 16 16 14 13 10 6 6 6 4 3 2 1 0 4 8 8 6 6 4 2 1 0 0 0 0 0 0 0 0 0 0 0 0
20 21 22 23 19 17 17 17 16 17 18 16 15 16 14 10 8 7 5 4 2 1 2 5 8 8 6 4 4 4 3 1 0 0 0 0 0 0 0 0 0 0 0
23 23 24 24 21 19 19 18 16 19 21 19 17 18 16 13 11 8 5 4 3 3 4 6 8 9 8 4 4 5 5 3 2 0 0 0 0 0 0 0 0 0 0
27 27 27 26 24 23 22 21 19 20 22 21 21 20 18 15 13 10 6 5 5 6 6 6 7 9 9 6 3 5 5 5 4 1 0 0 0 0 0 0 0 0 0
31 31 31 29 27 26 25 25 23 22 21 21 20 20 17 15 14 13 10 7 6 6 6 6 7 8 7 5 3 4 4 6 5 2 0 0 0 0 0 0 0 0 0
37 36 35 32 31 30 28 27 26 23 23 22 19 18 16 15 14 12 10 10 7 5 6 6 6 6 6 4 2 2 3 5 4 1 0 0 0 0 0 0 0 0 0
42 41 39 36 33 30 26 25 25 24 24 23 21 18 15 13 11 8 7 8 6 4 5 6 6 6 5 3 1 0 1 2 2 0 0 0 0 0 0 0 0 0 0
45 43 40 37 34 28 20 17 20 23 25 24 23 20 15 11 8 6 4 4 3 3 4 4 5 5 4 1 0 0 0 0 0 0 0 0 0 0 0 0 0 0 0
50 46 40 37 33 25 15 10 13 19 23 23 23 20 16 11 8 5 3 2 2 3 3 3 4 4 3 1 0 0 0 0 0 0 0 0 0 0 0 0 0 0 0
55 51 44 39 34 23 13 7 8 14 20 22 21 19 16 12 8 6 5 4 3 2 2 2 2 2 2 1 0 0 1 0 0 0 0 0 0 0 0 0 0 0 0
56 53 49 44 37 24 13 6 5 11 17 19 18 16 13 11 8 5 5 5 4 2 1 1 1 1 1 0 0 0 0 0 0 0 0 0 0 0 0 0 0 0 0
54 52 50 47 38 27 15 6 4 9 15 17 16 14 9 7 6 5 5 5 4 2 1 0 0 0 0 0 0 0 0 0 0 0 0 0 0 0 0 0 0 0 0

GEFSMA_con_probscp_210.txt.gz
Probability
0 0 0 0 0 0 0 0 0 0 0 0 0 0 0 0 0 0 0 1 2 3 3 3 3 1 0 0 1 2 2 3 3 2 1 1 0 0 0 0 0 0 0
0 0 0 0 0 0 0 0 0 0 0 0 0 0 0 0 0 0 0 1 2 3 3 4 3 2 1 1 1 1 1 2 2 2 2 2 1 1 0 0 0 0 0
0 0 0 0 0 1 1 1 0 0 0 0 0 0 0 0 0 0 0 0 1 2 3 4 4 4 3 2 2 2 1 1 1 2 2 2 2 2 1 0 0 0 0
0 0 0 0 0 2 2 1 0 0 0 0 0 0 0 0 0 0 0 0 0 1 2 4 5 5 4 4 3 3 3 2 2 1 1 1 2 2 2 1 1 0 0
0 0 0 0 0 1 1 1 0 0 0 0 0 0 0 0 0 0 0 0 0 0 1 3 4 5 5 6 5 5 4 4 4 3 1 1 1 1 2 3 2 1 1
0 0 0 0 0 0 0 0 0 0 0 0 0 0 0 0 0 0 0 0 0 0 0 1 2 3 4 6 7 7 7 7 6 4 3 2 1 1 2 3 3 3 2
0 0 1 1 0 0 0 0 0 0 0 0 0 0 0 0 0 0 0 0 0 0 0 0 0 1 1 2 4 6 9 9 7 5 4 3 1 1 2 3 3 3 3
1 1 2 2 1 1 0 0 0 0 0 0 0 0 0 0 0 0 0 0 0 0 0 0 0 0 0 0 1 4 8 9 7 6 5 4 3 2 2 2 2 2 2
4 4 4 4 3 1 0 0 0 0 0 0 0 0 0 0 0 0 0 0 0 0 0 0 0 0 0 0 0 2 5 7 7 7 6 6 5 3 2 2 1 1 1
5 5 5 4 3 1 0 0 0 0 0 0 0 0 0 0 0 0 0 0 0 0 0 0 0 0 0 0 0 1 2 4 5 6 7 7 6 5 4 3 2 1 0
6 7 7 5 2 0 0 0 0 0 0 0 0 0 0 0 0 0 0 0 0 0 0 0 0 0 0 0 0 0 1 1 3 4 5 5 6 6 5 4 3 1 1
7 8 8 6 3 1 0 0 0 0 0 0 0 0 0 0 0 0 0 0 0 0 0 0 0 0 0 0 0 1 1 1 1 2 3 3 4 5 5 5 4 3 2
8 8 8 6 4 2 1 1 1 1 0 0 0 0 0 0 0 0 0 0 0 0 0 0 0 0 0 0 0 1 1 1 0 0 1 1 2 4 4 5 4 3 2
8 7 6 4 3 1 1 3 4 3 2 1 0 0 0 0 0 0 0 0 0 0 0 0 0 0 0 0 0 0 0 0 0 0 0 0 1 2 3 3 3 2 1
8 6 4 3 2 1 2 4 5 4 3 2 1 1 1 1 1 1 1 1 1 0 0 0 0 0 0 0 0 0 0 0 0 0 0 0 0 1 1 1 1 1 1
7 5 4 4 4 4 4 5 6 5 4 4 3 3 3 2 2 2 2 2 2 1 1 1 0 0 0 0 0 0 0 0 0 0 0 0 0 0 0 0 0 0 0
6 5 4 5 6 6 7 8 9 9 7 6 6 5 4 3 3 3 3 3 3 3 2 2 1 0 0 0 0 0 0 0 0 0 0 0 0 0 0 0 0 0 0
8 7 6 5 5 7 9 11 12 12 10 9 7 5 4 3 3 3 3 3 3 3 3 2 1 0 0 0 0 0 0 0 0 0 0 0 0 0 0 0 0 0 0
10 9 8 6 6 8 10 13 14 13 12 10 8 5 4 3 3 3 3 3 3 3 3 2 1 0 0 0 0 0 0 0 0 0 0 0 0 0 0 0 0 0 0
11 12 11 10 10 10 11 14 16 15 13 12 9 7 5 4 3 3 3 3 3 3 3 2 1 0 0 0 0 0 0 0 0 0 0 0 0 0 0 0 0 0 0
13 14 13 13 13 12 12 14 18 17 13 11 10 9 8 6 4 3 3 3 3 3 3 1 0 0 0 0 0 0 0 0 0 0 0 0 0 0 0 0 0 0 0
14 15 15 15 13 12 11 12 15 15 11 10 10 11 11 8 6 4 3 3 3 3 2 1 0 0 0 0 0 0 0 0 0 0 0 0 0 0 0 0 0 0 0
15 15 15 15 13 11 9 7 8 9 9 9 11 12 11 9 7 5 4 3 3 3 2 1 0 0 0 0 0 0 0 0 0 0 0 0 0 0 0 0 0 0 0
20 17 15 14 13 9 5 3 3 5 8 9 10 11 11 9 6 5 5 4 3 2 1 0 0 0 0 0 0 0 0 0 0 0 0 0 0 0 0 0 0 0 0
25 22 18 16 14 10 4 1 1 3 5 6 8 8 9 7 4 3 5 6 5 2 0 0 0 0 0 0 0 0 0 0 0 0 0 0 0 0 0 0 0 0 0
27 25 22 20 16 11 5 1 1 2 2 3 4 4 5 4 2 1 4 6 5 2 1 0 0 0 0 0 0 0 0 0 0 0 0 0 0 0 0 0 0 0 0

GEFSMA_con_probscp_216.txt.gz
Probability
0 0 0 0 0 0 0 0 0 0 0 0 0 0 0 0 0 0 0 0 0 0 0 0 0 0 0 0 0 0 0 0 0 0 0 0 0 0 0 0 0 0 0
0 0 0 0 0 0 0 0 0 0 0 0 0 0 0 0 0 0 0 0 0 0 0 0 0 0 0 1 1 1 1 1 1 1 1 1 0 0 0 0 0 0 0
0 0 0 0 0 0 0 0 0 0 0 0 0 0 0 0 0 0 0 0 0 0 0 0 1 1 1 2 2 2 2 2 2 2 2 2 1 0 0 0 0 0 0
0 0 0 0 0 0 0 0 0 0 0 0 0 0 0 0 0 0 0 0 0 0 0 0 1 2 2 1 2 3 3 3 3 3 3 3 2 1 1 0 0 0 0
0 0 0 0 0 0 0 0 0 0 0 0 0 0 0 0 0 0 0 0 0 0 0 0 0 1 1 1 1 2 2 3 3 3 3 3 3 3 2 1 0 0 0
0 0 0 0 0 0 0 0 0 0 0 0 0 0 0 0 0 0 0 0 0 0 0 0 0 0 0 0 1 2 2 2 3 3 3 2 2 3 3 2 1 0 0
0 0 0 0 0 0 0 0 0 0 0 0 0 0 0 0 0 0 0 0 0 0 0 0 0 0 0 0 1 2 3 4 4 4 3 2 2 1 2 2 1 0 0
0 0 0 0 0 0 0 0 0 0 0 0 0 0 0 0 0 0 0 0 0 0 0 0 0 0 0 0 0 1 2 3 4 5 5 4 3 1 1 1 1 0 0
0 1 1 0 0 0 0 0 0 0 0 0 0 0 0 0 0 0 0 0 0 0 0 0 0 0 0 0 0 0 1 1 3 4 5 4 3 2 2 2 1 1 0
1 2 1 0 0 0 0 0 0 0 0 0 0 0 0 0 0 0 0 0 0 0 0 0 0 0 0 0 0 0 0 0 1 2 2 2 2 1 2 3 3 2 2
2 2 1 0 0 0 0 0 0 0 0 0 0 0 0 0 0 0 0 0 0 0 0 0 0 0 0 0 0 0 0 0 0 0 1 1 2 2 2 2 3 3 3
3 2 2 1 1 1 1 0 0 0 0 0 0 0 0 0 0 0 0 0 0 0 0 0 0 0 0 0 0 0 0 0 0 0 0 1 1 2 2 2 2 2 3
3 2 2 3 3 3 2 1 0 0 0 1 1 1 0 1 1 1 0 0 0 0 0 0 0 0 0 0 0 0 0 0 0 0 0 0 0 1 1 2 2 2 3
1 1 2 2 3 5 4 2 1 0 1 2 3 3 1 1 2 2 1 1 0 0 0 0 0 0 0 0 0 0 0 0 0 0 0 0 0 0 0 1 1 1 2
1 1 2 3 3 5 5 3 2 1 2 4 4 4 3 3 3 3 3 2 1 0 0 0 0 0 0 0 0 0 0 0 0 0 0 0 0 0 0 0 0 0 1
2 2 3 4 5 5 4 4 3 2 2 3 3 2 3 3 3 3 3 3 2 1 0 0 1 1 0 0 0 0 0 0 0 0 0 0 0 0 0 0 0 0 0
3 4 4 5 6 6 6 5 4 4 3 2 3 3 2 3 3 3 3 3 3 2 1 1 2 2 1 0 0 0 0 0 0 0 0 0 0 0 0 0 0 0 0
7 7 7 7 8 8 8 7 5 5 5 6 7 6 6 5 5 4 3 3 3 3 3 3 3 2 1 0 0 0 0 0 0 0 0 0 0 0 0 0 0 0 0
9 9 9 10 9 8 8 7 6 6 9 12 12 12 11 10 9 6 4 4 4 4 3 3 3 2 1 0 0 0 0 0 0 0 0 0 0 0 0 0 0 0 0
8 8 9 9 8 7 7 6 6 7 10 13 14 14 14 13 12 9 6 6 6 5 4 4 3 3 1 0 0 0 0 0 0 0 0 0 0 0 0 0 0 0 0
9 8 9 9 8 8 7 6 7 9 11 11 12 13 12 12 11 9 7 7 7 6 6 5 4 4 2 1 0 0 0 0 0 0 0 0 0 0 0 0 0 0 0
11 11 11 12 11 10 8 5 6 9 10 10 10 10 9 9 9 7 6 6 5 5 5 5 5 5 4 2 1 0 0 0 0 0 0 0 0 0 0 0 0 0 0
12 13 13 13 13 12 9 5 4 7 9 10 9 8 7 7 7 7 6 5 4 3 2 3 5 6 5 4 1 0 0 0 0 0 0 0 0 0 0 0 0 0 0
13 12 11 11 11 11 8 4 3 5 8 10 9 9 7 6 6 6 7 6 5 3 1 2 3 5 5 4 2 0 0 0 0 0 0 0 0 0 0 0 0 0 0
15 13 10 8 8 8 6 3 3 6 9 9 9 9 7 6 5 5 6 7 6 5 3 2 1 2 2 1 1 0 0 0 0 0 0 0 0 0 0 0 0 0 0
18 15 11 7 6 6 5 2 2 7 9 8 8 8 6 5 4 4 5 6 6 6 5 2 1 0 0 0 0 0 0 0 0 0 0 0 0 0 0 0 0 0 0

GEFSMA_con_probscp_222.txt.gz
Probability
0 0 0 0 0 0 1 2 3 3 3 1 0 0 0 0 1 0 0 0 0 0 0 0 0 0 0 0 0 0 0 0 0 0 0 0 0 0 0 0 0 0 0
0 0 0 0 0 0 1 2 2 3 3 2 1 0 0 0 1 0 0 0 0 0 0 0 0 0 0 0 0 0 0 1 1 1 1 1 1 1 0 0 0 0 0
0 0 0 0 0 0 1 1 1 1 2 2 1 0 0 0 0 0 0 0 0 0 0 0 0 1 1 1 2 2 1 1 2 2 2 2 2 2 1 1 1 1 0
0 0 0 0 0 0 0 0 0 1 1 1 0 0 0 0 0 0 0 0 0 0 0 0 0 1 2 3 4 3 3 2 3 3 3 3 3 3 3 3 2 2 1
0 0 0 0 0 0 0 0 1 1 1 0 0 0 0 0 0 0 0 0 1 1 1 1 0 1 1 2 3 3 3 3 4 3 3 2 2 3 3 3 2 2 2
0 0 1 1 1 1 1 1 1 2 1 0 0 0 0 0 0 0 0 1 2 2 2 1 1 1 1 1 1 1 1 2 3 4 3 3 2 3 2 2 2 1 1
1 1 2 2 2 2 2 1 1 1 1 0 1 1 0 0 0 0 0 0 1 1 1 1 1 1 1 0 0 1 1 1 2 3 3 3 3 3 3 2 2 2 1
2 2 2 2 2 3 3 4 3 2 1 1 2 2 1 0 0 0 0 0 0 0 0 0 1 1 0 0 1 2 2 1 1 1 1 2 2 2 2 2 2 2 2
3 2 3 3 2 3 5 7 6 5 4 3 3 3 1 0 0 0 0 0 0 0 0 0 0 1 1 1 2 3 3 3 2 1 0 1 1 0 0 0 0 1 1
3 3 3 4 4 5 7 9 8 8 7 5 4 5 3 2 1 0 0 0 0 0 0 0 0 0 1 3 5 4 2 2 2 2 2 2 1 1 0 0 0 0 0
4 4 4 6 6 7 9 10 9 8 7 5 5 6 5 5 3 1 1 0 0 0 0 0 0 0 1 3 5 3 1 1 1 2 2 2 2 2 2 2 1 0 0
8 8 9 11 11 10 11 11 11 9 8 7 7 7 8 6 4 3 2 1 0 0 0 0 0 0 0 2 3 2 0 0 0 1 1 0 1 2 2 2 2 1 0
11 12 14 15 15 13 12 13 14 12 10 9 8 9 9 7 5 5 4 1 0 0 0 0 0 0 0 1 2 1 0 0 0 0 0 0 1 1 2 2 1 1 1
8 10 11 12 14 14 14 17 18 15 12 10 8 10 11 9 8 7 5 3 1 1 1 1 1 1 3 4 3 2 1 1 0 0 0 0 0 0 0 0 0 0 0
6 6 6 8 12 15 17 20 20 17 14 11 10 13 14 14 12 10 7 7 5 3 2 2 3 3 5 6 4 3 4 3 1 0 0 0 0 0 0 0 0 0 0
7 7 7 10 12 15 17 19 19 18 16 15 15 16 17 17 16 14 12 13 11 8 5 3 4 5 5 5 4 4 6 5 2 1 0 0 0 0 0 0 0 0 0
10 10 11 11 12 13 15 16 17 18 19 18 17 18 19 19 18 18 18 17 15 13 9 6 5 6 5 5 5 6 5 6 4 1 0 0 0 0 0 0 0 0 0
13 12 12 12 13 14 16 18 19 22 25 23 20 21 21 20 21 23 23 19 17 16 13 9 7 8 8 7 8 8 6 5 4 2 0 0 0 0 0 0 0 0 0
14 12 10 11 13 15 17 19 22 27 30 29 26 26 26 24 24 26 26 23 21 19 17 13 9 10 11 10 10 8 7 7 5 3 1 0 0 0 0 0 0 0 0
16 13 11 11 12 14 16 19 23 27 31 33 32 32 32 28 25 26 27 26 25 23 20 15 10 10 12 12 11 10 9 9 9 5 2 1 0 0 0 0 0 0 0
18 18 18 16 14 14 15 18 21 24 29 31 31 32 32 28 22 20 21 22 24 24 23 17 13 13 14 13 12 11 11 10 9 7 5 4 2 1 1 0 0 0 0
19 21 23 23 20 16 13 13 16 21 25 25 25 26 27 25 19 15 12 12 15 19 21 20 19 18 17 14 12 12 11 10 8 6 6 5 3 2 1 0 0 0 0
20 22 24 26 24 17 10 8 10 16 20 20 21 22 22 23 22 18 13 9 9 11 14 18 21 21 20 18 15 13 11 10 8 5 4 4 3 2 1 0 0 0 0
21 22 25 28 26 18 9 6 7 12 16 18 19 19 19 20 22 22 20 16 14 12 10 11 15 17 17 17 17 13 10 9 7 5 4 3 2 1 0 0 0 0 0
24 25 27 28 26 18 9 5 6 11 17 20 19 16 15 15 16 18 20 21 20 17 11 6 7 9 10 10 11 10 8 6 5 4 3 1 1 0 0 0 0 0 0
28 28 28 27 24 18 10 5 6 12 18 22 20 15 12 12 12 14 17 21 22 21 14 6 3 4 5 5 5 6 6 4 3 3 2 0 0 0 0 0 0 0 0

GEFSMA_con_probscp_228.txt.gz
Probability
1 1 0 0 0 0 0 0 1 2 2 1 0 0 0 0 0 0 0 0 1 1 2 2 1 0 0 0 0 0 0 0 0 0 0 0 0 0 0 0 0 0 0
1 0 0 0 0 0 0 0 0 1 1 0 0 0 0 0 0 0 0 0 1 2 2 1 1 1 1 1 0 1 1 0 0 0 0 0 0 0 0 0 0 0 0
2 1 0 0 0 0 0 0 0 0 0 0 0 0 0 0 0 0 0 1 2 2 2 2 2 2 2 1 1 1 1 0 0 0 0 0 0 0 0 0 0 0 0
2 1 0 1 2 1 1 0 0 0 0 0 0 0 0 1 1 0 0 1 2 2 2 3 3 3 3 2 1 1 1 0 0 1 1 1 0 0 0 0 0 0 0
2 1 1 2 3 3 2 1 0 0 0 0 0 0 1 2 2 1 0 1 1 1 2 4 6 6 5 4 4 3 2 2 2 4 3 2 0 0 0 0 0 0 0
7 5 3 2 2 3 3 2 1 1 1 1 0 0 1 2 3 1 0 0 1 1 1 4 6 7 7 7 7 7 7 6 6 6 5 3 2 1 0 0 0 0 0
14 11 7 5 4 4 5 5 4 3 2 2 1 0 1 2 3 2 1 0 0 0 1 3 6 8 8 7 7 8 9 9 8 7 6 6 5 3 2 0 0 0 0
17 14 11 9 7 8 9 8 7 5 4 3 2 1 1 1 2 2 2 1 0 1 2 3 7 10 9 7 6 6 7 7 8 8 8 8 7 6 4 2 0 0 0
18 16 15 13 12 12 11 10 10 7 4 4 4 3 2 2 2 3 2 1 1 2 3 4 7 10 10 8 7 6 6 6 7 9 10 9 7 6 5 4 1 0 0
22 20 18 17 16 14 12 11 11 9 5 4 4 4 3 2 3 3 1 1 2 2 2 2 5 8 10 9 9 10 9 7 8 10 11 10 8 5 4 3 2 0 0
25 23 21 20 20 17 15 13 12 12 9 7 5 5 4 4 3 3 1 1 1 1 1 1 3 6 9 10 10 11 11 9 8 9 10 9 8 6 4 2 1 0 0
25 25 23 23 24 22 20 18 17 16 14 11 9 8 6 5 4 3 2 1 1 1 2 2 2 4 7 9 8 8 9 9 6 6 7 6 6 5 3 1 0 0 0
24 25 25 25 26 25 25 24 22 20 17 16 14 13 11 7 5 4 3 2 1 1 3 5 5 4 5 7 6 6 8 7 4 3 3 2 2 3 3 1 0 0 0
21 24 25 25 26 25 25 25 23 20 19 18 18 18 16 11 7 6 5 4 2 1 2 6 9 8 7 7 6 7 9 7 3 1 1 0 1 2 2 1 0 0 0
17 21 23 24 25 24 23 24 21 18 17 18 19 20 19 15 13 11 8 6 5 4 2 4 9 12 12 10 7 8 10 8 3 1 0 0 0 1 1 0 0 0 0
17 20 22 23 24 23 22 21 19 17 17 18 19 20 19 19 19 17 13 11 11 8 5 4 8 14 16 13 9 10 11 8 4 2 0 0 0 0 0 0 0 0 0
25 24 24 24 23 22 20 20 18 18 18 17 17 19 19 20 21 20 19 19 18 16 11 8 8 14 18 17 14 13 12 8 5 2 0 0 0 0 0 0 0 0 0
32 28 24 23 21 19 19 19 19 19 18 17 18 19 20 21 22 21 22 25 25 23 18 13 11 14 18 18 17 15 12 9 6 3 1 0 0 0 0 0 0 0 0
33 28 22 20 18 16 16 16 16 17 18 18 19 20 21 23 24 23 23 26 27 25 22 18 14 14 15 17 16 14 11 9 7 5 2 1 0 0 0 0 0 0 0
33 29 23 19 17 15 14 12 12 14 17 18 20 22 23 24 25 24 22 23 23 23 23 21 18 16 16 17 16 13 11 9 7 5 5 3 1 0 0 0 0 0 0
35 34 28 23 20 16 14 12 12 14 16 19 22 25 25 23 21 19 18 18 20 23 24 21 20 19 19 20 19 16 12 9 6 5 6 5 3 1 0 0 0 0 0
38 36 32 29 25 19 13 13 15 16 18 20 22 24 23 19 17 16 15 13 15 20 20 18 19 20 21 23 22 18 15 11 6 5 6 6 4 2 0 0 0 0 0
40 38 35 32 28 19 13 11 14 17 20 21 21 22 21 18 17 19 16 12 12 13 14 14 17 18 20 23 23 20 17 14 9 7 7 6 3 1 0 0 0 0 0
43 42 39 35 28 18 11 9 12 17 21 21 22 24 25 22 17 18 18 15 14 13 9 9 12 14 14 18 21 19 18 15 11 8 6 5 2 0 0 0 0 0 0
42 41 38 35 28 19 12 8 10 18 24 25 25 25 27 24 16 13 15 17 18 15 10 7 7 7 6 8 13 16 16 15 12 8 6 5 2 0 0 0 0 0 0
38 37 35 32 28 22 14 9 10 18 25 29 29 26 24 22 16 11 12 17 18 15 11 7 5 2 1 2 6 12 16 15 12 9 8 7 3 1 0 0 0 0 0

GEFSMA_con_probscp_234.txt.gz
Probability
0 0 1 1 1 0 0 0 0 0 0 0 0 0 0 0 0 0 0 0 0 0 0 0 0 0 0 0 0 0 0 0 0 0 0 0 0 0 0 0 0 0 0
0 0 0 0 0 0 0 0 0 0 0 0 0 0 0 0 0 0 0 0 0 1 1 0 0 0 0 0 0 0 0 0 0 0 0 0 0 0 0 0 0 0 0
0 0 0 0 0 0 0 0 0 0 0 0 0 0 0 0 0 0 0 0 0 1 1 1 1 1 1 1 1 1 1 0 0 0 0 0 0 0 0 0 0 0 0
1 1 0 0 0 0 0 0 0 0 0 0 0 0 0 0 0 0 0 0 0 1 1 2 3 4 5 4 3 3 2 1 1 0 0 0 0 0 0 0 0 0 0
0 0 0 0 0 0 0 0 0 0 0 0 0 0 0 0 0 0 0 0 0 0 0 1 4 6 7 7 7 6 5 4 3 2 1 0 0 0 0 0 0 0 0
0 0 0 0 0 0 0 0 0 0 0 0 0 0 0 0 0 0 0 0 0 0 0 0 2 5 7 9 10 9 8 8 6 5 3 2 1 0 0 0 0 0 0
0 0 0 0 0 0 0 0 0 0 0 0 0 0 0 0 0 0 0 0 0 0 0 0 1 3 5 7 9 10 10 10 9 8 6 5 3 1 1 0 0 0 0
1 1 1 1 0 1 1 1 0 1 1 0 0 0 0 0 0 0 0 0 0 0 0 0 1 1 3 4 7 9 10 10 10 10 9 8 6 3 2 1 0 0 0
3 3 3 2 2 2 3 3 2 2 2 1 0 0 0 0 0 0 0 0 0 0 0 0 0 0 1 4 5 7 9 10 10 10 11 10 8 5 3 2 1 1 1
5 6 6 4 3 3 5 5 5 4 3 2 1 0 0 0 0 0 0 0 0 0 0 0 0 0 1 2 3 4 6 7 8 9 11 11 9 7 4 2 2 1 1
6 8 8 6 4 4 5 6 7 5 3 2 1 0 0 0 0 0 0 0 0 0 0 0 0 0 0 1 1 2 3 4 5 6 8 8 9 7 5 3 2 2 2
6 7 7 6 6 6 6 6 6 4 2 1 0 0 0 0 0 0 0 0 0 0 0 0 0 0 0 0 0 1 2 2 2 2 3 5 7 7 6 5 4 4 3
4 6 7 7 7 6 6 6 5 4 2 1 1 1 1 1 0 0 0 0 0 0 0 0 0 0 0 0 0 1 2 1 0 0 1 2 4 5 6 6 6 5 4
4 5 7 8 7 7 6 6 4 3 3 2 2 2 2 2 1 1 0 0 0 0 0 0 0 0 0 0 0 0 1 1 0 0 0 0 1 2 4 4 4 3 3
4 5 7 8 8 7 6 4 2 2 3 3 3 3 2 2 2 1 0 0 0 0 0 0 0 0 0 0 0 0 0 0 0 0 0 0 0 0 1 1 1 1 1
6 6 6 7 7 6 4 2 1 1 1 2 2 1 1 1 1 1 0 0 0 0 0 0 0 0 0 0 0 0 0 0 0 0 0 0 0 0 0 0 0 0 0
8 7 6 6 6 5 2 1 0 0 0 1 1 0 0 0 0 0 0 1 1 1 1 1 0 0 1 1 1 0 1 1 1 1 0 0 0 0 0 0 0 0 0
11 9 7 5 4 3 2 1 1 0 1 1 1 0 0 0 0 0 1 2 2 2 2 2 1 1 2 2 2 2 2 2 2 2 1 0 0 0 0 0 0 0 0
13 11 8 5 4 4 3 2 2 2 2 2 2 1 1 1 1 1 3 3 4 4 4 3 3 3 3 3 3 3 4 3 3 3 2 1 0 0 0 0 0 0 0
13 11 9 6 4 4 4 3 2 2 3 3 3 3 3 3 3 4 5 5 6 7 5 4 3 3 3 3 4 5 5 4 4 3 3 2 1 0 0 0 0 0 0
16 13 11 8 6 5 5 4 2 2 3 3 4 5 5 5 6 6 6 7 8 9 7 4 3 3 3 3 3 4 5 5 5 4 3 2 1 0 0 0 0 0 0
18 17 15 12 10 7 5 4 3 3 4 5 5 7 7 7 7 7 7 8 8 8 7 5 4 3 3 3 4 5 6 6 6 5 3 2 1 0 0 0 0 0 0
19 19 18 17 16 12 7 4 3 4 6 7 7 8 7 7 7 7 8 8 8 7 7 6 5 4 3 3 5 6 6 6 5 3 1 1 0 0 0 0 0 0 0
23 23 21 20 19 15 7 3 2 4 6 8 8 7 7 6 6 7 8 8 8 7 6 5 5 4 3 2 3 5 5 4 3 1 0 0 0 0 0 0 0 0 0
27 27 25 21 17 12 8 4 3 5 7 7 7 6 6 5 5 6 7 7 7 6 5 3 3 3 1 0 1 2 2 2 2 1 0 0 0 0 0 0 0 0 0
29 29 26 20 13 9 8 6 4 5 7 7 6 6 5 3 3 4 5 6 6 6 4 2 1 1 0 0 1 1 1 2 4 3 1 0 0 0 0 0 0 0 0

GEFSMA_con_probscp_240.txt.gz
Probability
0 0 0 0 0 0 0 0 0 0 0 0 0 0 0 0 0 0 0 0 1 1 1 1 0 0 0 0 0 0 0 0 0 0 0 0 0 0 0 0 0 0 0
0 0 0 0 0 0 0 0 0 0 0 0 0 0 0 0 0 0 0 0 1 2 2 2 1 0 0 0 0 0 0 0 0 0 0 0 0 0 0 0 0 0 0
0 0 0 0 0 0 0 0 0 0 0 0 0 0 0 0 0 0 0 0 1 2 3 2 1 0 0 0 0 0 0 0 0 0 0 0 0 0 0 0 0 0 0
0 0 0 0 0 0 0 0 0 0 0 0 0 0 0 0 0 0 0 0 0 1 1 1 1 0 0 0 0 1 1 2 1 0 0 0 0 0 0 0 0 0 0
0 0 0 0 0 0 0 0 0 0 0 0 0 0 0 0 0 0 0 0 0 0 0 0 0 0 0 0 1 2 4 5 4 2 2 1 0 0 0 0 0 0 0
0 0 0 0 0 0 0 0 0 0 0 0 0 0 0 0 0 0 0 0 0 0 0 0 0 0 0 0 1 3 5 6 6 5 5 4 2 1 1 0 0 0 0
0 0 0 0 0 0 0 0 0 0 0 0 0 0 0 0 0 0 0 0 0 0 0 0 0 0 0 0 1 2 3 5 6 7 7 7 6 5 3 2 1 0 0
0 0 0 0 0 0 0 0 0 0 0 0 0 0 0 0 0 0 0 0 0 0 0 0 0 0 0 0 0 1 1 2 5 7 7 8 7 6 5 4 3 1 1
1 0 0 0 0 0 0 0 0 0 0 0 0 0 0 0 0 0 0 0 0 0 0 0 0 0 0 0 0 0 0 0 2 3 4 6 6 5 5 5 4 3 2
1 0 0 0 0 0 0 0 0 1 1 2 2 1 1 0 0 0 0 0 0 0 0 0 0 0 0 0 0 0 0 0 0 1 2 3 5 5 5 5 5 5 5
1 1 1 1 1 1 2 2 2 3 4 4 4 4 2 1 0 0 0 0 0 0 0 0 0 0 0 0 0 0 0 0 0 0 1 3 4 5 5 5 7 8 8
2 2 2 2 3 3 4 4 4 5 6 5 4 4 2 1 1 0 0 0 0 0 0 0 0 0 0 0 0 0 0 0 0 0 1 2 3 4 4 4 5 8 9
4 4 4 4 4 5 5 6 6 6 6 6 4 2 1 1 1 0 0 0 0 0 0 0 0 0 0 0 0 0 0 0 0 0 0 1 2 2 2 2 2 5 6
5 5 5 5 5 5 6 6 7 6 6 6 3 1 1 1 0 0 0 0 0 0 0 0 0 0 0 0 0 0 0 0 0 0 0 0 1 1 1 0 0 2 3
4 4 4 5 6 6 7 8 7 6 5 4 2 1 0 0 0 0 0 0 0 0 0 0 0 0 0 0 0 0 0 0 0 0 0 0 0 0 0 0 0 0 1
5 5 5 6 6 7 8 8 6 5 3 2 1 1 1 1 0 0 0 0 0 0 0 1 0 0 0 0 0 0 0 0 0 0 0 0 0 0 0 0 0 0 0
9 8 8 8 8 7 7 6 5 4 3 2 1 1 2 2 2 2 1 0 1 1 1 1 1 0 0 0 0 0 1 1 1 0 0 0 0 0 0 0 0 0 0
12 11 10 9 8 7 6 5 4 5 4 3 1 2 3 3 3 3 2 2 2 3 2 2 2 1 0 0 0 0 1 2 2 1 0 0 0 0 0 0 0 0 0
12 11 10 9 8 6 6 6 5 5 5 3 2 2 3 3 3 5 5 5 5 4 3 3 3 2 1 1 0 1 1 2 2 2 1 1 0 0 0 0 0 0 0
12 11 10 10 9 7 6 7 6 5 4 2 1 1 2 2 4 7 9 9 7 6 5 5 5 4 3 2 2 2 1 1 1 2 2 2 1 1 0 0 0 0 0
12 12 11 11 10 8 7 7 6 4 3 2 1 2 2 2 4 7 9 10 9 8 7 7 8 7 6 6 6 5 4 2 1 2 3 2 2 1 0 0 0 0 0
12 12 12 11 10 9 6 5 5 5 5 4 4 5 5 5 5 6 6 6 7 7 6 7 8 8 9 10 10 9 7 5 3 2 2 1 1 1 0 0 0 0 0
12 12 11 10 9 8 5 3 3 6 7 6 6 8 8 8 7 7 5 4 4 4 4 6 7 7 8 10 10 9 7 6 4 2 1 0 0 0 0 0 0 0 0
15 14 12 12 11 8 4 2 2 5 6 6 7 8 9 8 8 7 6 5 4 3 3 4 5 5 5 6 7 6 5 5 3 1 0 0 0 0 0 0 0 0 0
17 17 16 16 14 11 7 2 2 4 5 6 7 9 9 7 6 4 4 5 5 4 3 2 2 1 1 2 4 4 4 4 3 2 1 1 1 1 0 0 0 0 0
18 18 18 17 17 15 10 4 2 4 6 7 9 9 9 6 4 4 4 4 6 6 3 2 1 0 0 1 2 5 5 4 3 3 3 3 2 2 1 0 0 0 0

GEFSMA_con_probscp_246.txt.gz
Probability
0 0 0 0 0 1 3 3 2 1 2 2 1 0 0 0 0 0 0 0 0 0 0 0 0 0 0 0 0 0 0 0 0 0 0 0 0 0 0 0 0 0 0
0 0 0 0 1 2 3 3 2 1 2 2 1 0 0 0 1 1 1 1 1 1 0 0 0 0 0 0 0 0 0 0 0 0 0 0 0 0 0 0 0 0 0
0 0 0 0 1 2 2 2 1 1 1 1 0 0 0 1 2 2 2 2 2 1 0 0 0 0 0 0 0 0 1 1 0 0 0 0 0 0 0 0 0 0 0
0 0 0 0 0 1 1 1 0 0 0 0 0 0 0 1 2 2 1 1 1 1 0 0 0 0 0 0 0 1 2 2 1 1 1 0 0 0 0 0 0 0 0
0 0 1 1 1 0 0 0 0 0 0 0 0 0 0 0 1 1 0 0 1 1 1 1 1 0 0 1 1 1 2 3 3 3 3 1 1 1 0 0 0 0 0
0 0 2 2 1 0 0 0 0 0 0 0 0 0 0 0 0 0 0 0 1 1 1 1 1 1 1 2 2 1 2 3 4 5 5 4 3 3 2 1 0 0 0
1 1 2 3 2 1 0 0 0 1 1 1 1 1 1 0 0 0 0 0 0 1 1 2 3 3 2 2 2 1 1 1 3 5 6 6 6 5 5 4 2 1 1
2 2 2 3 3 3 1 1 1 2 3 3 4 3 2 1 1 0 0 0 0 0 1 2 4 5 4 2 2 2 2 1 1 2 4 5 6 6 6 5 4 2 2
3 3 3 4 5 5 4 3 4 4 4 5 6 6 4 3 3 2 1 1 1 2 2 2 3 4 4 3 2 1 1 1 0 1 3 4 4 4 4 4 3 3 3
4 4 4 5 7 7 6 6 6 6 6 6 7 8 8 7 7 4 2 1 2 3 2 2 2 2 3 4 2 2 2 1 0 1 2 2 2 2 2 3 3 3 3
6 6 7 9 9 8 7 7 7 7 8 8 8 10 10 10 10 7 3 1 1 1 1 2 2 3 3 3 3 3 3 1 0 0 1 1 1 0 1 3 3 3 4
10 9 11 13 12 9 8 8 8 8 9 9 9 10 10 11 11 8 4 1 0 0 0 1 2 3 3 3 3 3 2 1 0 0 0 0 0 0 1 3 4 4 5
11 12 13 14 12 10 9 10 10 9 9 9 9 9 10 10 10 9 6 3 1 1 0 1 2 1 1 2 3 1 0 0 0 0 0 0 0 0 1 2 4 5 5
12 13 13 13 13 12 11 13 12 11 10 9 8 8 8 8 10 11 10 6 3 1 0 1 2 1 1 2 3 3 2 1 0 0 0 0 0 0 0 1 3 3 4
15 16 15 14 13 12 13 14 14 12 12 12 11 10 9 9 10 12 12 9 5 2 1 1 3 2 3 3 4 7 7 3 0 0 0 0 0 0 0 0 1 1 2
21 21 20 17 15 14 14 14 13 13 15 16 15 14 13 12 12 12 12 10 9 6 3 4 7 7 6 5 5 7 8 6 3 2 1 0 0 0 0 0 0 0 1
22 23 23 21 19 18 16 14 13 15 17 19 19 19 17 15 14 12 11 11 11 10 7 8 12 14 11 8 6 6 7 9 8 4 1 0 0 0 0 0 0 0 0
21 21 21 22 22 22 19 16 14 15 18 20 22 21 19 17 15 13 12 11 11 11 11 13 16 19 17 14 11 9 9 11 10 5 1 0 0 0 0 0 0 0 0
22 21 19 19 21 22 20 17 15 17 18 20 21 20 19 18 16 15 14 13 13 13 15 16 19 21 21 20 18 14 13 15 12 6 2 1 0 0 0 0 0 0 0
25 24 22 21 21 22 21 17 16 17 19 19 19 17 16 16 15 14 14 15 14 15 16 19 21 22 22 24 23 19 17 16 14 11 7 5 4 2 1 0 0 0 0
27 29 28 27 25 23 19 16 15 16 18 20 19 17 15 14 13 12 11 12 13 14 16 20 23 23 24 26 25 23 20 18 16 14 13 11 9 6 5 4 2 0 0
31 33 33 31 30 24 16 11 14 17 20 22 20 17 14 13 12 8 6 5 7 10 13 18 22 23 25 27 27 24 21 18 17 16 15 14 13 12 11 8 3 0 0
35 34 32 30 30 25 15 8 10 17 21 22 21 17 14 12 11 8 6 4 5 7 10 16 20 20 22 25 26 24 22 21 21 21 18 15 15 16 14 9 3 0 0
34 34 31 28 30 27 16 7 8 14 19 21 20 19 18 14 11 9 9 10 11 10 10 13 15 15 17 19 20 23 24 24 24 23 20 17 15 15 14 10 4 0 0
32 33 32 30 31 27 16 6 6 14 19 20 20 21 20 15 10 8 10 14 16 15 12 11 9 8 9 10 13 18 22 22 22 21 20 16 13 12 13 11 6 2 0
32 33 34 33 31 26 16 6 6 14 19 20 21 20 17 12 8 7 9 14 17 16 14 11 7 3 3 3 7 14 17 19 20 20 19 15 12 11 11 10 7 3 1